User: anonymous   Login
Location: Caltech
(34.1382°N, 118.1253°W)
Time: 01:40:31
(UTC-08:00)
Language:

Cosmos 1939 Rocket - Orbit

View from above orbital plane
View from above orbital plane
View from above satellite
View from above satellite

Ground track
Ground track

The orbit data is extracted from the following two-line orbital elements,

1 19046U 88032B   18049.57339203 -.00000140 +00000-0 -58923-5 0  9994
2 19046 097.4986 093.9140 0035953 210.8736 149.0375 15.02389898609347
Epoch (UTC): 18 February 2018 13:45:41
Eccentricity: 0.0035953
inclination: 97.4986°
perigee height: 534 km
apogee height: 584 km
right ascension of ascending node: 93.9140°
argument of perigee: 210.8736°
revolutions per day: 15.02389898
mean anomaly at epoch: 149.0375°
orbit number at epoch: 60934

The dashed part of the orbit path shows where the satellite is in the earth's shadow,  

DLR